Weather in Saburo-Pokrovskoye

Russia / Tambov Oblast     52°50′07″N   41°00′43″E
temp.,
°C
wind,
m/s
gust,
m/s
humid.,
%
clouds,
%
prec.,
mm/h
press.,
hPa
HPBL,
m
28 february, sun
sun2800:00−10nnw379678 0.0 1013186
03:00−12nnw359665 0.0 1014100
06:00−11nw249660 0.0 1015109
09:00−9nw259573 0.1 1015203
12:00−7nw359292 0.1 1016425
15:00−6nnw369295 0.1 1016431
18:00−8nnw239699 0.0 101748
21:00−8n259599 0.1 1019156
1 march, mon
mon100:00−10nne229698 0.0 102122
03:00−10nnw119697 0.1 102221
06:00−8nw2496100 0.1 1023138
09:00−6nw3691100 0.1 1026525
12:00−4wnw3486100 0.0 1026522
15:00−4sw469394 0.1 1025412
18:00−3wsw599198 0.0 1024418
21:00−3wsw5119199 0.1 1022465
2 march, tue
tue200:00−3wsw61295100 0.1 1019384
03:00−2wsw81495100 0.3 1016548
06:000wsw81593100 0.3 1012680
09:00+1w81497100 0.8 1009716
12:00+1nw81398100 0.6 1008757
15:00+1nw71293100 0.9 1008823
18:00−1wnw5129289 0.1 1009396
21:00−2wnw6139494 0.3 1010594
3 march, wed
wed300:00−3nw61294100 0.2 1010532
03:00−3nw6129399 0.3 1011562
06:00−4nw6139394 0.1 1012602
09:00−4nnw8128996 0.1 1014771
12:00−3nnw81187100 0.1 1015908
15:00−3nw71287100 0.2 10161096
18:00−3nw5138899 0.1 1017672
21:00−6nw4119274 0.1 1019321
4 march, thu
thu400:00−7wnw36944 0.0 1020110
03:00−7w369638 0.0 1020101
06:00−7wsw479463 0.0 1019134
09:00−5wsw6119331 0.0 1018300
12:00−2wsw7138751 0.0 1016566
15:00−1sw7138467 0.0 1014626
18:00−1sw7168478 0.0 1011529
21:00−1sw8168568 0.0 1010549